Regional Weather Roundup
Issued by NWS

Home | Current Version | Previous Version | Text Only | Print | Product List | Glossary Off
Versions: 1 2 3 4 5 6 7 8 9 10 11 12 13 14 15 16 17 18 19 20 21 22 23 24 25 26 27 28 29 30 31 32 33 34 35 36 37 38 39 40 41 42 43 44 45 46 47 48 49 50

000
ASUS43 KLOT 292203
RWRIL

ILLINOIS REGIONAL WEATHER ROUNDUP
NATIONAL WEATHER SERVICE CHICAGO/ROMEOVILLE IL
500 PM CDT WED MAR 29 2017

NOTE: "FAIR" INDICATES FEW OR NO CLOUDS BELOW 12,000 FEET WITH NO
SIGNIFICANT WEATHER AND/OR OBSTRUCTIONS TO VISIBILITY.

* THESE STATIONS ARE NOT UNDER NWS QUALITY CONTROL. THEY ALSO MAY NOT
  REPORT WEATHER SUCH AS PRECIPITATION OR FOG.

ILZ001-002-007-009-015-016-024-292300-
NORTHWEST ILLINOIS

CITY           SKY/WX    TMP DP  RH WIND       PRES   REMARKS
MOLINE         LGT RAIN  48  42  80 E18       29.97S
STERLING*      LGT RAIN  46  40  79 E25G35    30.00F
SAVANNA*       LGT RAIN  46  39  77 NE15G22   30.04F
$$

ILZ003-004-008-010-011-017-018-292300-
NORTH CENTRAL ILLINOIS

CITY           SKY/WX    TMP DP  RH WIND       PRES   REMARKS
ROCKFORD       LGT RAIN  47  36  65 E14       30.09F
FREEPORT*      CLOUDY    46  36  69 E18       30.08F
ROCHELLE*      LGT RAIN  44  38  78 E15G29    30.05F
DE KALB*       CLOUDY    46  35  66 E18G28    30.07F
PERU*          CLOUDY    47  39  72 E22G29    30.00F
$$

ILZ005-006-012>014-019>023-292300-
NORTHEAST ILLINOIS

CITY           SKY/WX    TMP DP  RH WIND       PRES   REMARKS
CHICAGO-OHARE  CLOUDY    47  35  63 NE20      30.09F
CHICAGO-MIDWAY LGT RAIN  49  35  58 NE17G24   30.08F
AURORA         CLOUDY    48  35  60 NE20      30.05F
LANSING*       CLOUDY    46  39  76 NE10      30.09F
JOLIET*        CLOUDY    49  39  70 E15G25    30.04F
WAUKEGAN       CLOUDY    41  34  76 NE15      30.12F
DUPAGE AIRPORT LGT RAIN  47  36  65 NE16G26   30.05F
WHEELING       CLOUDY    45  36  70 NE12G20   30.13F
MORRIS*        CLOUDY    47  39  72 E16G22    30.02F
NORTHERLY ISL    N/A     42  36  79 NE21        N/A
$$

LMZ740>746-292300-
SOUTHERN LAKE MICHIGAN

STATION/POSITION SKY/WX   TEMP    WIND        PRES    VSBY  WAVE
                          AIR SEA DIR/SP/G                  HT/PER
                          (F)     (DEG/KT/KT) (MB)    (MI)  (FT/S)
HARRISON CRIB              42      50/ 20/ 22   N/A
BURNHAM HARBOR             42      40/ 14       N/A
CALUMET HARBOR             42      30/ 16/ 21 1019.2F
BURNS HARBOR               42      80/ 13/ 16 1020.3F
MICHIGAN CITY              41      30/  8/  9   N/A
$$

ILZ025>027-034>036-040-047-049-050-058-095>099-292300-
WEST-CENTRAL ILLINOIS

CITY           SKY/WX    TMP DP  RH WIND       PRES   REMARKS
QUINCY         CLOUDY    52  48  86 SE17G32   29.84S
GALESBURG*     LGT RAIN  48  43  83 E15G23    29.91F
MACOMB*        CLOUDY    49  45  85 E20G25    29.93R
JACKSONVILLE*  CLOUDY    53  49  86 E20G26    29.89F
PITTSFIELD*    CLOUDY    54  51  87 E17       29.87F
$$

ILZ028>032-037-038-041>044-048-051>054-059>061-292300-
CENTRAL ILLINOIS

CITY           SKY/WX    TMP DP  RH WIND       PRES   REMARKS
PONTIAC        CLOUDY    52  44  72 E24       30.00F
BLOOMINGTON    CLOUDY    50  43  77 E20G30    29.97F
DECATUR        CLOUDY    54  47  77 E21       29.94F
PEORIA         CLOUDY    52  41  66 E17G25    29.95F
LINCOLN*       CLOUDY    54  47  79 E22G28    29.93F
SPRINGFIELD    CLOUDY    55  47  74 E16G32    29.92F
TAYLORVILLE    NOT AVBL
$$

ILZ033-039-045-046-055>057-062-063-292300-
EAST-CENTRAL ILLINOIS

CITY           SKY/WX    TMP DP  RH WIND       PRES   REMARKS
CHAMPAIGN      CLOUDY    55  43  63 E20       29.97F
RANTOUL*       CLOUDY    55  46  69 E18G24    30.00F
MATTOON        CLOUDY    56  47  71 E12       29.96F
PARIS*         CLOUDY    58  46  65 E16G24    29.99F
$$

ILZ079-100>102-292300-
SOUTHWEST ILLINOIS

CITY           SKY/WX    TMP DP  RH WIND       PRES   REMARKS
ALTON          CLOUDY    61  54  77 E16G23    29.87F
BELLEVILLE     CLOUDY    67  56  69 E17       29.85F
CAHOKIA*       CLOUDY    67  54  63 SE9G23    29.84F
SPARTA*        PTSUNNY   68  56  66 E16       29.87S
$$

ILZ064>066-069>071-074>076-080>082-084>086-088>090-092>094-292300-
SOUTH-CENTRAL ILLINOIS

CITY           SKY/WX    TMP DP  RH WIND       PRES   REMARKS
CARBONDALE     CLOUDY    71  58  63 SE12      29.86F
CAIRO*         CLOUDY    74  62  64 E7        29.84F
EFFINGHAM*     CLOUDY    59  51  74 E13G25    29.95F
MARION         PTSUNNY   73  57  56 SE7       29.88S
MT. VERNON     CLOUDY    68  54  60 E12G18    29.90S
CENTRALIA*     CLOUDY    67  55  63 E9G17     29.89R
SALEM*         CLOUDY    67  53  59 E9G17     29.90S
$$

ILZ067-068-072-073-078-083-087-091-292300-
SOUTHEAST ILLINOIS

CITY           SKY/WX    TMP DP  RH WIND       PRES   REMARKS
LAWRENCEVILLE  CLOUDY    62  50  64 E16       29.96F
FLORA*         CLOUDY    65  53  65 E17       29.92F
FAIRFIELD*     CLOUDY    68  53  59 E12G18    29.90S
HARRISBURG*    MOSUNNY   72  58  62 E12G20    29.89S
ROBINSON*      CLOUDY    59  49  68 E15G21    29.98F
CARMI*         CLOUDY    70  55  58 E18       29.89F
$$

ABBREVIATIONS USED IN REMARKS
   TC - TEMPERATURE IN CELSIUS
  WCI - WIND CHILL INDEX
   HX - HEAT INDEX
  VSB - VISIBILITY
$$





USA.gov is the U.S. government's official web portal to all federal, state and local government web resources and services.